Retour au catalogue

COSMOS 2251 DEB

ActifLEO
NORAD 34944·DEBRIS·🇷🇺 Russia

Lancé Jun 16, 1993 depuis Plesetsk Cosmodrome

Loading…

Prochains Passages (prochaines 24 heures)

TLE

FraisSource: Space-Track

Époque: Sep 14, 2026, 05:35 UTC

1 34944U 93036ADX 26257.23311179  .00000835  00000-0  35556-3 0  9997
2 34944  73.7463  94.7043 0219198 257.7768  99.8748 14.14831678679780

Suivez COSMOS 2251 DEB en temps réel avec AllMySat

Download on the App Store